Theta_e
311 310 310 311 310 310 310 312 315 315 316 318 314 314 318 316 315 319 320 318 316 316 316 316 317 317 316 316 316 316 317 316 316 316 316 315 315 315 315 314 314 313 312 313 313 313 313 313 313 313 312 311 310 309 310 312 313 313 315 317 318 318 319 319 318 318 318 318 317 316 315 314 312 312 312 314 317 318 318 317 316 315 315 315 316 316 316
312 310 311 311 310 311 312 311 313 312 313 315 314 315 316 315 316 319 319 318 316 314 314 314 314 313 313 313 314 314 315 315 316 316 315 315 315 315 315 315 314 314 313 312 312 312 312 312 312 312 312 311 311 309 308 308 307 307 309 311 312 313 313 312 310 309 309 309 308 308 308 308 308 309 310 312 313 315 314 314 314 314 315 316 317 317 317
314 311 311 311 310 310 310 311 313 314 314 316 317 316 316 314 315 317 319 318 315 313 312 312 312 312 312 312 311 312 313 313 313 314 315 316 315 314 314 315 315 314 313 312 311 311 311 311 311 311 311 311 311 309 309 308 308 308 309 308 309 310 310 308 306 305 307 307 307 308 308 309 310 311 312 313 315 316 317 317 316 317 317 318 318 317 317
315 312 309 311 311 310 311 313 315 316 315 315 316 316 316 314 313 316 318 316 313 312 311 311 310 311 311 310 311 311 311 311 311 311 313 314 314 313 313 314 315 314 313 312 311 311 311 310 311 311 310 310 310 309 309 308 308 308 307 306 307 308 308 306 305 305 306 308 308 308 308 309 309 310 311 312 314 315 316 317 317 317 317 317 317 317 317
314 311 311 313 312 312 315 315 314 313 314 315 315 315 315 314 313 315 315 313 311 311 311 312 312 311 309 310 310 310 310 310 310 310 310 311 312 313 313 314 314 314 313 312 311 311 310 310 310 309 308 309 310 309 308 308 308 307 306 305 306 307 306 306 306 306 306 307 306 307 307 308 308 309 309 310 311 313 314 315 316 316 317 317 317 317 315
312 313 314 314 312 313 316 314 312 313 314 316 316 314 312 313 313 313 312 311 311 310 309 310 312 310 310 309 309 309 309 309 309 309 308 309 310 311 312 313 313 312 311 312 311 310 310 309 309 309 307 308 309 308 308 307 307 307 307 307 307 307 307 307 307 307 306 306 307 307 307 307 308 308 308 308 309 309 311 313 314 316 316 316 316 316 314
313 314 314 312 311 312 313 311 310 312 313 314 316 313 310 310 311 311 310 309 309 307 306 307 308 308 309 308 308 308 308 308 308 308 308 308 309 310 311 311 311 311 311 311 311 310 310 309 309 308 307 307 307 307 308 308 307 307 307 307 307 308 307 307 306 306 306 306 306 307 307 307 306 305 305 305 306 307 308 309 311 312 313 314 315 315 315
313 312 312 311 310 310 312 311 310 311 312 314 317 315 309 307 309 309 308 308 307 306 305 306 306 307 308 307 307 307 306 307 307 306 306 307 307 308 309 310 310 310 310 310 310 309 309 309 308 308 307 307 307 307 308 308 308 307 307 306 307 307 307 307 306 306 306 306 307 306 305 305 304 303 303 303 304 304 304 305 307 310 312 313 313 314 314
314 312 311 313 310 309 312 312 310 310 310 311 314 314 308 305 306 306 307 307 306 305 304 305 305 306 307 309 307 306 306 306 306 306 306 306 306 306 307 308 308 309 309 309 309 308 308 307 307 307 307 307 307 307 307 307 307 307 307 307 307 307 307 306 307 306 306 307 308 306 305 304 304 304 303 302 302 301 301 302 304 307 310 312 312 312 313
314 313 311 310 309 308 311 311 308 307 307 308 310 311 308 306 305 304 305 306 305 303 304 304 304 305 308 310 307 305 305 305 305 306 305 305 305 306 305 306 306 307 307 307 307 307 307 306 306 306 306 306 305 306 306 307 307 307 307 307 307 307 307 307 307 307 307 307 307 307 307 306 305 304 303 302 302 301 300 300 301 305 308 310 311 312 312
312 312 310 309 308 309 309 309 306 305 305 306 308 309 308 305 303 303 304 304 303 303 303 303 304 306 308 308 305 304 304 304 304 304 304 305 305 305 305 305 305 304 305 305 305 306 306 306 306 305 305 305 304 305 305 306 306 306 306 306 306 307 307 307 307 307 306 306 307 307 308 306 305 303 303 303 303 302 301 300 300 303 307 309 311 312 312
311 311 310 309 308 309 308 307 305 304 304 306 309 309 306 303 302 303 303 302 303 303 302 302 304 306 307 305 304 303 303 303 303 303 303 304 304 304 304 304 304 304 304 304 304 304 304 305 305 305 304 304 305 305 305 305 305 305 305 306 306 306 307 307 306 306 306 306 306 306 305 305 304 304 304 304 304 304 302 300 299 302 306 309 310 311 311
309 310 309 307 308 308 306 305 304 303 304 307 308 306 304 302 302 302 301 302 302 302 302 302 303 303 303 302 302 302 302 302 302 302 302 303 303 304 304 304 304 304 304 304 304 304 304 304 304 304 304 304 304 304 304 304 304 304 305 305 305 305 306 306 306 306 306 305 305 305 305 305 306 306 306 306 305 305 303 301 300 302 306 308 310 310 311
309 308 308 308 307 305 304 304 303 303 306 307 305 303 302 302 302 301 301 301 301 301 301 301 301 301 300 300 300 301 301 301 301 301 301 302 302 302 303 303 303 303 303 303 304 303 303 303 303 303 303 303 303 303 303 304 304 304 305 305 305 305 305 305 306 306 305 305 305 305 305 305 306 306 306 306 305 305 304 303 303 305 308 309 310 310 310
308 308 307 307 307 305 303 303 303 303 305 305 303 301 301 301 300 300 300 300 300 300 300 300 299 300 299 299 299 299 299 300 300 300 300 300 300 301 301 302 302 302 302 302 302 303 303 303 303 303 303 303 303 303 303 303 303 303 303 304 305 305 306 306 306 306 306 306 305 306 305 305 305 305 305 305 305 305 305 305 306 308 309 310 310 311 310
307 306 306 307 306 304 302 302 302 302 302 302 300 300 300 300 299 299 299 299 299 299 299 299 299 299 299 299 299 299 299 299 299 299 299 299 300 299 300 300 300 300 300 300 301 301 302 302 302 302 302 302 302 302 302 302 302 302 302 303 304 305 305 305 305 305 305 305 305 305 305 305 304 304 305 305 305 306 307 306 306 308 309 310 310 310 310
303 302 304 305 304 301 300 300 300 300 300 299 299 299 299 299 299 299 299 299 299 299 299 299 299 299 299 299 299 299 299 299 299 299 300 300 299 299 299 300 300 300 300 300 300 301 301 301 301 301 301 302 302 302 302 302 302 302 302 303 303 304 304 304 304 305 305 304 304 304 304 304 305 305 305 306 306 307 308 307 307 308 309 309 310 310 310
302 302 301 300 299 299 299 299 299 299 299 299 299 299 299 299 299 299 299 299 299 299 299 299 299 299 299 299 299 299 299 299 299 299 299 299 299 299 299 299 299 300 300 300 300 300 300 300 301 301 301 301 301 302 302 302 302 302 302 302 303 303 303 303 304 304 304 304 304 304 305 305 305 305 306 307 307 308 308 307 307 307 307 308 309 310 310
304 303 300 298 298 299 299 299 299 299 299 299 299 299 299 299 299 299 299 299 299 299 299 299 299 299 299 299 299 299 299 299 300 300 300 300 300 300 299 299 300 300 299 299 300 300 300 300 300 301 301 301 301 301 301 302 302 302 302 302 302 302 303 303 304 304 305 304 304 304 304 304 305 305 306 307 308 308 308 307 307 306 306 307 308 309 309
302 301 299 298 299 299 298 299 299 299 299 299 299 299 299 299 299 299 299 299 299 299 299 299 299 299 299 299 299 299 299 299 299 300 300 300 300 300 299 300 299 299 299 300 300 300 300 300 300 300 300 300 300 301 301 301 301 302 302 302 302 302 302 302 303 304 304 304 304 304 304 304 305 306 307 307 307 307 307 307 306 306 306 307 307 307 307
301 300 299 299 299 299 299 299 299 299 299 299 299 299 299 299 299 299 299 299 299 299 299 298 298 298 298 298 298 299 299 299 299 299 299 299 299 299 299 299 299 299 299 300 300 300 300 300 300 300 300 300 300 300 300 300 301 301 301 301 302 302 302 302 302 302 302 303 303 303 304 305 305 306 306 306 306 306 305 305 305 305 306 306 306 306 306
302 300 299 299 299 300 299 299 299 299 299 299 299 299 299 299 299 299 299 299 299 298 298 298 298 298 298 298 298 298 298 298 298 298 298 299 299 299 299 299 299 299 299 299 300 300 300 300 300 300 300 300 300 300 300 300 300 300 300 300 300 300 301 302 302 302 302 302 302 303 304 304 305 305 305 305 305 304 305 305 306 306 305 305 305 305 305
301 299 299 299 299 299 299 299 299 299 299 299 299 298 299 298 298 298 298 298 298 298 298 298 298 298 298 298 298 298 298 298 298 299 299 299 299 299 299 299 299 299 299 299 299 299 299 300 300 300 300 300 300 300 300 300 300 300 301 301 301 301 301 302 302 303 303 303 303 303 304 304 304 304 304 304 304 305 306 306 305 305 304 305 305 305 304
300 299 299 299 298 298 298 298 298 298 298 298 298 298 298 298 298 298 298 298 298 298 297 297 297 298 298 298 298 298 298 298 298 298 298 298 298 298 299 299 298 298 298 298 298 299 299 299 299 299 300 300 300 300 300 300 300 301 301 302 302 302 302 302 302 302 302 302 303 303 304 304 304 304 304 304 305 306 306 305 305 304 304 305 304 303 303
299 298 298 298 298 298 298 298 298 298 298 298 298 298 297 297 297 296 297 297 297 296 296 296 296 296 296 296 296 296 296 296 297 297 297 298 298 298 298 297 297 297 297 297 298 298 298 298 298 298 298 299 299 300 300 300 300 301 301 302 302 302 302 302 302 303 303 303 303 303 303 304 304 304 304 305 305 306 305 304 304 303 303 302 302 301 300
298 298 298 298 298 298 298 298 298 298 298 297 297 296 296 296 296 295 296 296 295 294 294 294 293 293 293 293 293 293 293 294 294 294 295 295 295 295 295 295 296 296 297 297 297 297 297 297 297 297 297 297 297 298 299 299 300 300 300 301 301 302 302 302 302 303 303 303 303 304 304 304 304 304 305 305 305 305 304 303 302 301 300 299 299 299 298
298 298 298 297 297 298 298 297 297 297 297 296 296 295 295 295 295 295 294 294 293 292 292 292 292 291 291 291 290 290 291 291 291 291 291 291 292 292 292 293 293 294 295 295 295 296 296 296 296 296 296 296 296 296 296 297 297 298 299 299 300 301 302 302 302 303 303 303 303 304 304 304 304 305 305 305 304 304 303 303 301 300 298 297 297 297 297
298 298 297 297 297 297 297 297 297 296 295 295 295 294 294 294 294 293 293 292 292 292 291 291 291 291 291 290 289 289 289 289 289 290 290 291 291 292 292 292 292 293 293 293 293 294 294 295 296 296 296 296 296 296 296 296 296 297 297 298 299 300 300 301 302 302 303 303 303 303 304 304 305 305 304 304 303 302 301 301 300 298 296 296 296 296 296
297 297 297 297 297 297 296 296 296 295 294 294 294 294 294 293 293 292 292 292 292 291 291 291 291 290 290 290 290 289 289 289 289 290 291 291 292 292 293 293 293 293 293 293 293 294 295 296 296 297 297 297 297 297 297 297 297 297 297 297 298 298 299 300 301 302 303 303 303 303 304 304 304 304 303 302 301 300 299 298 298 297 296 296 295 296 296
297 297 297 297 296 296 296 295 295 294 294 294 294 293 293 292 292 292 292 292 292 292 291 291 290 290 290 290 290 290 290 290 290 291 292 292 293 293 293 294 294 294 294 294 295 296 296 297 297 297 297 297 297 297 297 297 297 297 297 298 298 298 298 299 300 301 302 303 303 304 304 303 303 303 302 300 298 298 297 297 296 296 296 296 296 297 297
297 297 297 296 296 296 295 295 294 294 293 293 293 293 292 292 292 292 292 292 292 292 292 291 290 290 290 290 290 290 291 291 291 292 292 293 293 293 294 294 294 295 295 296 296 297 297 297 297 297 297 297 297 297 297 298 298 298 298 298 299 299 299 300 300 301 302 302 303 303 303 302 301 300 299 297 296 296 296 296 296 296 296 296 297 297 296
297 297 296 296 296 295 295 295 294 293 293 293 293 293 292 292 292 292 293 292 292 292 292 291 290 290 290 290 290 290 291 291 292 292 293 293 294 294 294 294 295 296 296 297 297 298 297 297 297 297 297 296 296 297 298 299 299 298 298 298 299 300 300 300 300 301 301 302 302 302 302 300 299 297 296 296 296 296 296 296 296 297 297 296 297 297 296
297 296 296 296 295 295 295 294 294 293 294 294 293 293 293 293 292 292 292 292 291 291 292 291 291 291 290 290 290 290 291 292 292 293 293 294 294 294 295 295 296 297 298 298 298 297 297 297 297 297 297 296 296 297 298 299 300 299 299 299 300 301 301 301 301 302 301 301 300 300 299 298 296 296 296 296 296 296 297 297 297 297 296 296 297 296 296
297 296 296 295 295 295 295 294 294 294 294 294 293 293 293 293 292 292 292 291 290 291 292 292 291 291 291 290 290 290 291 292 292 292 292 293 293 294 295 296 297 298 298 298 297 297 297 297 297 297 297 297 297 297 297 299 299 299 299 300 300 301 300 300 300 300 299 298 298 298 297 297 296 296 296 296 296 296 296 296 296 296 296 296 296 296 296
297 296 295 295 295 295 295 294 295 295 294 294 293 293 292 293 293 292 292 291 290 291 292 292 291 291 291 291 290 290 290 290 290 290 291 292 294 294 295 297 298 298 298 298 297 297 297 297 297 297 297 297 297 297 297 297 298 298 298 299 299 299 298 298 298 298 297 297 297 297 297 296 296 296 296 296 296 296 296 297 296 297 297 296 296 296 296
296 296 295 295 295 295 295 294 294 294 294 294 294 293 293 292 293 292 292 292 290 290 291 291 291 291 291 291 291 290 290 290 290 290 291 292 294 295 296 298 298 298 298 297 297 297 297 298 297 297 297 297 297 297 297 297 296 297 297 297 297 297 297 297 297 297 297 297 297 296 296 296 296 296 296 296 297 297 297 297 297 297 296 296 296 296 295
296 296 295 295 295 295 295 294 294 294 294 294 294 293 292 292 292 292 292 292 291 290 290 291 291 291 290 290 290 290 291 291 290 290 291 293 294 296 297 297 297 298 297 297 297 297 297 298 298 297 297 297 297 297 297 296 296 296 296 296 296 296 296 296 296 296 296 296 296 296 296 297 297 297 297 297 297 297 297 297 296 296 296 296 296 295 295
296 296 295 295 295 295 295 294 294 293 293 293 293 293 292 292 292 292 292 292 291 290 290 290 291 291 290 290 290 290 290 291 291 291 292 293 294 295 296 295 295 295 296 296 296 297 297 297 298 297 297 297 297 297 297 296 296 296 296 296 296 296 296 296 296 296 296 296 297 297 297 297 297 297 297 297 297 297 297 296 296 296 296 296 296 296 295
296 295 295 295 295 295 295 294 293 293 293 292 292 292 292 291 291 292 291 291 291 291 290 289 289 290 290 290 290 290 289 290 291 292 293 293 294 294 294 293 293 293 294 295 296 296 297 297 297 298 298 297 297 297 297 297 297 297 297 297 297 297 297 297 297 297 297 297 297 297 297 297 297 297 297 297 296 296 296 296 296 296 296 296 295 295 295
295 295 295 294 294 295 295 294 293 293 293 293 292 292 292 291 291 291 291 291 291 291 290 288 288 288 289 290 290 290 289 288 289 291 292 293 293 294 293 293 293 293 294 294 295 296 296 297 297 297 297 297 297 297 297 297 297 297 297 297 297 297 297 297 297 297 297 297 297 297 297 297 297 297 297 296 296 296 296 296 296 296 295 294 293 293 293
295 295 295 295 294 295 294 294 293 293 293 293 292 292 291 291 291 291 290 290 290 291 290 288 287 287 288 288 289 289 289 288 288 288 290 290 291 292 292 291 292 293 293 294 294 295 296 296 296 296 296 296 297 297 297 297 297 297 297 297 297 297 297 297 297 296 296 296 296 297 297 297 297 297 297 296 296 296 296 296 295 295 294 292 291 291 292
296 296 295 295 295 295 294 294 294 293 293 292 292 292 291 291 291 291 290 290 290 290 290 289 288 288 288 287 287 288 288 288 287 288 288 289 289 289 289 289 290 291 292 292 293 294 295 295 296 295 295 295 296 296 296 296 296 296 296 296 296 296 296 296 296 296 296 296 296 296 296 296 296 296 296 296 296 295 295 294 293 292 291 290 290 290 291
297 296 295 295 296 295 294 294 294 294 293 292 292 292 292 291 291 291 291 289 289 289 290 290 290 290 290 289 287 286 286 287 286 287 287 287 288 288 288 288 289 289 290 290 291 292 293 294 294 295 295 295 295 295 296 295 295 295 296 295 295 295 295 295 295 296 296 296 296 296 296 296 296 296 296 296 295 294 293 292 291 291 291 290 290 290 289
297 297 296 296 296 296 295 294 294 293 293 292 291 291 292 292 291 291 291 290 288 288 288 289 290 290 290 290 288 287 286 286 286 286 286 287 287 287 287 287 288 288 289 289 290 290 290 291 292 293 294 295 295 296 296 296 295 295 295 295 295 295 295 296 296 296 296 296 296 296 296 296 295 295 294 293 292 291 291 290 290 290 290 290 290 289 289
296 296 296 296 296 296 295 295 294 294 293 292 291 291 292 292 291 291 291 290 289 287 287 288 289 290 290 290 289 288 286 286 285 286 286 286 286 286 286 286 287 287 288 288 288 289 289 289 290 290 291 292 293 294 295 295 295 295 295 295 295 295 295 295 295 295 295 295 295 295 295 294 294 292 291 290 290 290 290 290 290 289 289 290 290 290 290
297 296 296 296 296 296 295 295 295 294 293 292 292 292 292 292 292 291 290 289 288 287 286 286 288 289 290 290 289 288 287 286 286 285 285 285 286 286 286 286 286 286 286 287 287 288 288 288 289 289 289 289 290 290 291 291 292 293 293 294 294 294 294 294 294 294 293 293 293 292 292 291 290 290 289 289 289 289 289 290 290 291 291 291 291 292 292
297 297 296 296 296 296 295 295 295 294 293 292 293 293 292 292 292 291 290 289 289 289 288 286 286 287 288 288 288 288 287 286 286 285 285 285 285 285 286 285 285 285 285 286 286 286 287 287 288 288 288 289 289 289 289 289 289 289 290 290 291 291 291 290 290 290 290 290 290 289 289 289 289 289 289 289 289 289 290 290 291 292 292 292 292 292 293
297 297 297 296 296 296 296 296 296 295 293 292 293 293 293 292 291 291 290 291 291 291 290 288 287 286 286 286 286 286 286 286 286 286 285 285 285 285 285 285 285 285 285 285 285 285 286 287 287 287 287 288 288 288 288 288 288 288 288 289 289 289 289 289 289 289 288 288 288 288 288 288 288 288 288 289 289 289 290 290 291 291 291 292 292 292 293
296 296 297 297 296 296 296 296 296 295 294 293 293 293 293 292 291 291 291 291 292 291 291 290 289 288 287 286 286 286 286 286 286 286 286 286 285 285 285 285 285 285 284 284 284 285 285 286 286 286 287 287 287 288 288 288 288 288 288 288 288 288 288 288 288 288 288 287 287 287 287 287 287 287 287 288 289 289 289 290 290 291 291 291 292 292 293
296 296 296 297 297 296 296 296 296 296 294 293 293 294 293 292 291 291 291 291 292 291 291 290 289 289 288 287 287 287 286 287 287 287 286 286 286 286 286 286 285 285 285 285 284 284 285 285 285 285 286 286 286 286 287 287 287 287 287 287 287 287 287 287 288 287 287 287 287 287 287 286 286 286 286 287 287 288 288 288 289 289 289 290 290 291 292
296 296 296 296 296 296 295 295 295 295 294 293 293 293 293 292 292 292 292 291 291 291 290 290 289 289 288 287 287 287 287 286 287 287 287 286 286 286 286 286 285 285 285 285 284 284 284 284 285 285 285 285 285 285 285 286 286 286 286 286 286 287 287 287 287 286 286 286 286 286 286 286 286 286 286 285 286 286 286 286 287 287 288 288 289 289 290
296 296 296 296 296 296 295 295 295 295 294 294 294 293 293 292 292 292 292 291 291 291 291 290 290 289 288 288 287 287 287 286 286 286 287 287 286 286 286 285 285 285 285 284 284 284 284 284 284 284 284 284 285 285 285 285 285 285 285 285 285 285 285 285 285 285 285 285 285 285 285 285 285 285 285 285 285 285 286 286 286 287 287 287 287 288 289
Wind_Speed
5 6 6 8 7 6 6 5 5 6 6 6 4 4 5 2 1 5 4 3 1 3 2 2 4 5 6 6 10 16 14 12 12 13 15 16 16 17 15 12 12 13 14 14 13 13 14 13 12 10 8 7 7 8 9 9 9 8 8 9 10 10 9 8 7 8 9 9 9 9 9 9 9 8 8 9 10 13 16 18 17 15 15 16 17 19 19
4 6 7 8 7 7 7 6 6 7 6 5 4 4 4 2 2 6 3 4 2 2 3 4 6 10 14 18 14 9 7 8 13 13 12 12 11 12 15 16 16 14 14 13 11 10 10 10 9 7 6 6 5 5 7 8 8 8 9 9 9 9 8 8 7 6 6 6 5 5 4 3 4 5 6 5 7 8 9 10 10 10 11 12 13 14 16
4 5 6 8 7 7 7 7 6 6 7 7 5 3 4 4 2 2 6 8 4 5 6 7 14 19 20 21 20 17 15 11 3 5 11 13 11 9 11 16 19 16 15 14 11 9 9 9 9 7 6 7 6 4 5 5 5 7 8 9 9 9 8 6 6 7 7 6 5 4 3 2 2 1 1 2 3 4 4 5 6 7 8 9 10 11 13
3 4 4 6 6 8 8 7 6 5 5 4 3 2 3 4 4 7 9 8 4 6 7 8 13 17 17 16 17 18 18 20 21 15 5 4 11 17 18 18 20 19 17 16 15 13 10 9 11 10 7 7 8 6 5 5 7 7 5 5 8 9 7 6 6 7 6 5 4 3 2 1 1 1 1 1 2 3 4 5 6 8 9 9 10 11 12
3 3 4 6 7 7 6 4 5 5 2 3 5 4 5 6 6 5 4 2 3 5 7 8 8 10 12 13 16 18 18 18 21 23 22 19 11 7 19 22 22 20 20 20 18 15 11 8 9 9 5 7 11 10 8 7 7 5 2 3 5 5 5 5 5 5 5 5 4 4 3 4 5 6 6 6 5 5 5 7 8 10 10 10 11 13 14
2 1 5 7 5 2 4 2 7 7 3 5 7 4 7 7 5 4 4 2 5 8 9 8 7 8 10 14 17 19 20 19 19 22 23 24 23 14 5 15 18 18 20 21 19 16 13 10 11 9 4 4 7 8 7 6 6 4 3 3 4 4 5 6 5 5 5 6 6 6 7 8 9 10 10 10 10 9 9 9 9 10 11 12 12 14 16
1 2 6 5 3 4 2 5 9 9 6 6 7 7 10 10 8 8 9 8 8 11 13 14 14 12 13 19 24 23 22 20 17 19 21 21 21 19 12 10 12 15 18 18 18 16 13 12 12 9 2 1 4 4 3 5 6 6 6 6 5 6 6 5 6 6 6 5 7 8 9 9 9 8 7 7 8 9 10 11 11 11 11 12 13 14 16
2 2 3 2 4 3 4 8 8 8 7 7 6 7 10 11 8 8 8 7 8 12 16 19 18 13 12 19 25 24 23 22 20 19 20 21 21 17 12 12 12 12 12 11 10 9 7 7 9 8 3 2 2 5 4 4 5 6 7 6 6 6 6 6 6 6 5 6 7 8 8 9 7 6 5 4 5 6 7 9 10 11 11 12 13 14 15
3 4 3 2 2 6 5 5 5 6 5 4 2 4 6 9 10 8 6 6 9 12 17 21 19 14 12 14 19 23 23 21 19 18 18 20 20 17 11 9 8 6 5 4 3 2 2 1 3 7 7 3 2 3 5 6 6 6 7 7 7 8 8 9 8 6 6 7 9 9 10 9 8 6 6 6 6 6 6 7 9 10 11 12 14 15 16
3 4 1 1 1 2 2 1 5 8 9 7 3 3 4 6 13 15 10 7 9 12 15 20 20 14 10 6 10 20 22 19 18 17 17 17 15 14 13 10 6 5 3 2 3 4 3 1 1 4 7 6 4 4 6 7 8 9 9 8 8 9 10 9 8 7 8 9 10 10 11 10 10 11 11 11 10 8 7 7 8 10 11 13 14 15 16
3 4 2 1 2 2 2 3 7 12 15 12 6 3 3 6 13 17 14 9 11 13 15 18 16 10 6 2 9 18 20 18 18 19 17 16 14 13 12 10 9 9 7 6 4 5 6 7 7 7 7 6 7 9 10 10 11 11 11 11 11 11 11 10 10 10 11 10 10 11 12 13 14 15 14 13 13 11 9 9 9 10 12 14 16 17 18
2 3 3 1 1 1 3 5 9 15 17 11 5 2 1 8 14 17 16 13 12 14 15 16 10 5 2 3 9 16 18 16 17 19 18 17 16 14 13 12 13 12 9 8 9 9 8 8 8 8 8 9 9 10 11 12 13 14 14 15 14 15 15 14 14 14 14 14 14 14 15 15 16 16 16 15 15 15 13 12 10 12 14 16 17 18 19
1 2 2 1 1 1 4 8 12 15 13 7 4 2 3 9 13 15 17 16 15 13 12 11 8 6 9 11 12 15 17 17 18 19 19 18 17 16 16 16 17 16 15 14 13 12 12 10 8 8 10 12 12 13 14 16 17 17 17 18 18 18 18 18 17 17 16 15 15 14 14 14 14 14 16 17 18 18 17 15 12 14 16 17 18 19 19
3 2 2 2 1 1 5 9 12 12 6 1 1 2 6 9 11 14 14 13 14 14 11 10 11 13 15 16 17 17 17 18 19 19 19 19 19 18 18 19 19 19 19 18 17 16 16 13 12 12 13 15 16 17 17 17 17 16 17 18 18 18 18 17 17 17 16 16 16 16 16 15 15 16 19 20 21 21 19 16 14 15 17 18 19 20 21
2 2 3 3 2 3 4 6 8 8 3 2 3 5 8 9 13 17 15 13 14 17 15 14 16 16 16 17 19 20 19 20 20 21 21 21 20 19 19 20 21 21 22 22 21 20 19 16 14 15 16 18 19 19 18 17 17 18 19 19 18 18 18 18 18 18 17 17 16 17 17 17 18 20 21 22 22 21 18 14 14 17 18 18 19 20 20
2 3 2 1 4 4 2 3 1 2 5 8 9 9 11 14 18 19 18 17 18 18 17 17 17 17 18 19 20 21 22 22 22 23 23 23 22 21 20 20 21 22 25 26 26 25 23 21 19 18 18 19 21 21 19 17 17 19 20 21 20 19 19 19 19 19 19 19 20 20 20 21 21 22 22 22 22 20 16 13 14 17 18 18 19 19 18
2 2 2 1 2 2 8 8 5 9 15 18 18 16 15 16 17 17 17 18 19 18 18 18 17 17 18 18 20 22 24 25 25 25 24 24 23 24 25 24 22 23 25 25 25 25 26 26 25 25 24 23 22 21 19 17 17 17 18 19 20 20 20 20 21 20 20 21 21 21 20 19 20 21 21 21 20 19 16 15 15 17 18 18 18 18 17
3 2 5 11 12 13 15 15 15 20 21 19 19 18 16 15 15 16 16 16 17 18 18 18 17 18 19 20 21 23 24 26 27 27 28 27 25 25 26 27 26 26 27 26 24 23 22 20 19 20 19 18 17 16 16 17 16 15 15 15 17 19 19 20 20 22 23 22 20 19 19 18 19 21 21 20 20 19 19 17 16 17 17 17 18 18 18
2 1 7 14 14 14 18 21 22 23 21 19 19 17 15 15 14 14 14 15 16 17 17 17 18 19 20 21 22 23 24 25 26 26 27 28 27 26 26 27 28 29 29 28 27 25 23 20 17 16 16 16 15 16 17 18 19 19 18 18 17 17 18 19 19 18 19 20 20 20 20 21 21 20 19 19 18 18 18 16 16 17 17 17 17 17 17
1 1 9 17 14 13 18 21 21 21 22 21 21 18 16 16 14 13 14 15 15 16 17 17 18 20 21 21 22 23 23 24 25 25 25 26 26 26 27 28 29 30 29 27 25 24 24 23 23 22 22 22 22 22 22 22 23 25 24 22 20 19 19 21 22 21 20 21 21 21 22 23 22 19 16 15 15 16 16 16 17 17 17 16 15 16 17
2 3 12 18 14 12 17 21 21 21 22 22 21 19 17 17 16 16 16 16 16 17 18 18 19 21 22 22 23 23 24 24 24 25 25 25 25 26 26 26 26 27 28 27 26 25 24 23 24 25 26 27 27 27 26 26 27 28 28 27 26 24 21 21 23 25 25 24 25 25 25 24 23 20 18 17 18 19 20 19 17 16 16 15 14 15 16
3 3 8 11 6 5 12 19 20 21 20 19 18 18 17 18 18 18 18 18 17 18 18 19 20 22 23 23 23 24 24 24 24 24 24 24 24 23 23 23 23 24 25 26 26 26 25 23 22 23 24 25 27 28 29 28 28 29 30 30 30 29 26 23 22 23 23 22 23 26 26 23 22 22 21 21 21 21 20 17 15 15 15 14 13 14 16
2 4 9 10 6 4 10 16 18 18 17 16 17 17 16 17 17 16 17 18 20 20 20 20 21 22 23 22 22 23 23 23 23 23 23 22 22 22 22 23 24 25 25 24 24 24 24 23 22 22 22 23 24 25 26 26 25 25 27 28 29 29 28 26 24 22 21 21 21 23 22 21 22 23 22 20 20 19 18 17 16 15 14 13 13 14 15
1 6 10 11 9 9 12 14 14 14 15 16 16 16 15 15 15 15 16 18 18 19 20 19 18 18 18 19 19 19 20 21 21 21 22 23 24 25 25 25 25 26 25 25 25 25 25 25 25 25 24 24 24 24 25 26 26 25 25 26 28 28 28 27 25 24 24 25 24 22 21 21 22 22 21 20 19 18 17 16 15 12 12 13 14 14 13
4 6 8 9 9 11 12 12 12 14 16 16 14 13 13 14 16 16 16 15 14 15 16 17 16 16 16 17 17 18 19 20 22 23 25 27 28 29 29 29 27 26 26 27 28 29 29 30 31 31 31 31 29 28 28 28 28 28 26 25 26 27 28 27 26 24 24 25 26 26 26 26 24 22 21 21 20 18 15 12 10 9 10 12 14 15 15
4 6 9 9 8 10 12 13 14 15 14 12 10 11 12 14 15 14 12 12 13 13 15 16 18 18 18 18 19 20 21 23 25 26 27 27 28 28 28 28 27 27 28 28 30 30 30 31 33 35 37 37 35 34 33 33 32 32 32 30 28 26 26 26 25 24 25 25 25 26 26 26 25 23 22 21 19 17 15 15 15 16 17 17 17 17 16
5 7 10 8 7 10 12 12 11 11 11 10 11 12 13 12 11 10 10 12 14 15 16 17 18 19 19 20 21 21 21 22 23 23 23 23 22 22 23 23 25 26 28 28 29 29 30 31 33 35 37 37 36 36 36 35 35 34 34 34 33 30 28 25 22 22 24 26 27 26 25 25 25 23 22 19 16 15 17 20 23 24 23 22 19 17 16
6 8 9 7 7 9 10 9 8 9 10 11 12 12 11 11 10 11 12 14 16 17 18 19 19 19 20 21 21 21 20 20 20 20 19 18 17 17 16 17 19 21 22 23 24 25 26 27 28 29 30 29 29 30 31 32 33 33 33 33 33 33 31 29 25 22 23 26 26 25 24 24 23 21 19 18 18 18 21 23 26 27 25 22 20 18 16
6 8 8 6 6 7 8 8 8 8 9 10 11 10 11 11 11 12 14 16 19 22 22 20 19 19 19 19 19 18 18 19 19 18 17 15 14 13 14 14 14 14 13 13 13 13 14 15 16 17 19 20 21 24 27 28 30 32 33 33 33 33 32 30 27 25 24 23 22 22 22 22 21 19 19 20 22 24 26 27 27 26 24 22 21 19 16
6 6 6 5 6 7 7 8 8 9 9 9 9 10 11 12 13 15 16 18 21 24 24 22 20 19 18 16 16 15 15 15 14 14 13 11 9 8 7 5 4 4 4 3 4 4 4 6 8 11 14 16 18 21 24 26 28 29 30 29 29 29 30 29 27 25 22 20 20 20 21 21 21 21 23 25 27 28 28 27 25 23 22 20 18 15 13
4 5 5 5 6 7 7 7 7 7 7 8 9 10 11 12 14 16 18 20 22 24 24 23 21 20 19 18 16 13 10 9 8 7 6 6 6 7 10 13 14 15 15 15 15 15 13 12 12 13 14 15 16 19 19 18 19 22 24 25 24 23 24 26 26 24 20 18 19 19 20 21 22 24 26 29 29 27 26 25 23 22 20 17 15 13 12
4 4 4 5 6 5 6 6 5 6 9 11 11 11 12 13 15 16 18 20 22 23 24 24 23 21 20 19 17 13 10 8 7 6 7 8 11 14 17 18 19 20 20 20 21 21 20 20 21 20 19 17 14 15 17 13 7 12 18 21 22 22 21 23 24 23 20 20 21 21 20 22 25 28 30 29 28 26 25 23 22 19 18 17 16 14 13
3 3 3 4 4 4 4 4 4 6 10 12 13 13 12 13 15 16 16 19 21 21 22 25 26 23 21 20 19 16 12 9 8 8 10 12 14 16 19 20 20 20 20 21 22 23 23 24 26 27 26 23 15 9 8 4 5 13 16 19 21 21 21 22 23 22 22 23 25 25 25 27 31 32 30 27 26 24 22 21 19 18 18 17 15 13 11
1 0 2 3 3 3 4 4 4 7 10 10 11 13 13 13 15 14 14 18 22 20 19 23 27 25 22 21 20 19 17 14 13 12 12 13 14 17 19 20 20 20 20 21 22 23 23 23 24 28 32 32 27 20 14 13 17 20 19 21 23 24 23 24 25 26 28 29 30 29 30 31 31 30 27 25 24 22 20 19 18 16 15 14 12 11 9
2 2 2 3 3 3 2 2 3 5 7 8 10 12 13 14 13 11 12 18 23 20 18 20 24 25 26 24 23 22 22 20 18 17 16 17 17 18 17 18 19 20 21 21 21 22 24 23 23 26 31 35 36 34 32 30 29 29 27 27 28 29 28 29 30 30 31 31 31 31 31 30 28 26 24 23 21 18 17 15 13 12 12 12 12 11 10
3 4 4 4 3 1 2 4 4 3 5 8 9 10 13 14 13 9 9 16 21 20 18 18 21 23 26 26 25 24 23 23 22 22 22 23 23 21 18 17 18 20 20 21 20 20 22 24 24 24 26 28 31 34 37 38 38 37 36 34 34 33 33 33 33 33 32 32 31 31 29 26 24 22 20 19 17 15 13 12 12 12 13 12 11 11 12
3 4 6 5 3 1 3 5 4 3 7 10 9 9 11 13 12 8 9 14 19 19 17 16 18 20 22 24 24 23 22 23 25 26 27 28 27 24 22 21 20 19 19 19 19 19 19 21 23 24 25 25 25 26 28 31 33 34 35 34 33 33 32 31 30 28 28 27 26 25 24 22 20 19 17 15 14 14 14 15 15 14 13 11 10 11 13
5 6 7 6 3 1 2 3 3 4 8 10 8 7 8 9 9 9 10 13 16 18 16 14 14 16 18 19 20 22 22 21 22 25 28 29 28 28 28 27 25 22 19 17 17 17 18 19 20 22 24 25 25 24 25 26 27 29 30 30 29 29 29 28 26 25 24 23 22 21 20 19 19 18 18 17 18 18 18 17 15 14 12 11 10 9 10
7 7 7 6 4 3 1 2 2 3 5 7 6 6 7 7 7 7 9 11 14 16 16 14 12 12 13 14 16 19 21 20 19 21 24 26 27 29 30 30 28 25 21 17 15 16 17 17 17 19 21 21 21 22 23 24 26 27 28 27 27 28 28 28 26 25 24 23 22 22 21 21 20 20 19 18 17 17 16 14 12 11 10 9 8 8 8
8 7 6 6 5 4 2 1 2 2 4 5 6 6 6 6 6 6 7 8 10 13 15 15 14 13 12 12 12 14 17 18 17 17 19 22 23 25 27 27 27 26 23 20 18 18 16 15 15 17 18 18 17 18 18 19 20 22 22 23 23 23 23 23 21 19 17 17 17 18 18 17 17 16 15 13 13 13 12 11 9 8 7 7 7 8 9
9 9 7 6 4 3 2 3 1 1 2 4 5 6 5 5 6 6 6 6 7 9 12 14 15 16 15 13 10 10 12 15 16 17 18 19 21 23 24 25 24 24 24 23 22 21 20 18 17 17 16 16 15 15 17 18 19 19 19 19 18 18 17 17 16 14 13 12 11 11 11 11 11 12 12 12 12 12 11 11 10 9 8 7 7 7 9
11 11 9 7 5 3 3 4 4 2 1 2 3 4 5 5 5 6 7 6 5 6 9 11 13 15 17 15 12 10 10 12 14 16 17 18 20 20 21 21 21 21 21 22 23 23 22 22 21 19 17 15 14 13 13 15 16 15 15 14 13 12 11 11 11 12 12 12 11 11 11 11 11 11 11 11 10 10 10 10 9 9 8 6 5 5 6
11 11 9 8 8 7 6 5 6 4 2 2 2 3 5 5 4 5 7 8 6 5 6 7 9 11 14 15 15 13 11 11 13 14 16 16 17 18 18 18 18 18 19 19 20 21 21 21 21 19 17 15 13 12 10 10 10 9 9 9 8 8 8 9 11 12 12 12 12 12 11 11 11 10 9 9 9 9 9 9 9 8 7 6 6 5 4
11 13 12 10 9 9 8 7 5 5 5 3 3 2 2 3 4 4 6 7 7 6 5 5 6 8 10 12 13 14 13 12 12 12 12 13 14 16 16 15 15 15 16 17 18 19 19 18 18 17 15 14 13 11 10 10 9 8 7 7 7 8 9 10 11 11 10 10 10 9 9 8 8 7 7 7 7 8 8 8 8 8 8 8 7 6 4
11 12 13 12 11 10 9 7 6 7 8 5 4 2 1 1 3 4 4 5 6 7 7 5 5 6 7 9 12 13 13 12 12 12 11 12 13 14 14 14 13 13 14 14 14 15 15 14 14 13 13 12 11 10 10 10 9 8 8 8 8 8 9 10 10 9 9 8 8 7 6 6 5 5 5 5 6 6 6 5 5 5 6 6 6 4 3
12 11 12 13 13 12 11 9 8 8 8 5 3 3 2 2 1 3 3 3 5 7 7 5 4 4 4 5 8 11 12 12 12 13 13 13 12 12 12 12 12 13 12 12 12 13 12 11 11 11 11 10 10 9 9 8 8 7 6 6 6 6 6 6 5 5 5 5 5 5 5 4 4 4 4 4 4 4 3 2 3 3 4 4 5 4 4
13 12 12 13 13 13 12 9 8 8 7 4 4 6 6 3 3 3 2 2 5 6 7 7 6 5 4 3 3 7 10 11 12 13 13 13 12 11 10 11 12 12 12 12 12 11 10 10 9 10 9 9 8 9 9 8 7 6 6 5 5 5 5 4 4 3 3 3 3 2 2 1 1 2 2 2 1 1 1 2 3 3 3 3 3 3 3
13 13 13 11 11 12 12 10 9 10 9 6 5 7 7 5 4 4 2 1 2 4 6 6 6 6 6 5 4 6 8 9 10 12 13 12 12 12 11 11 12 13 12 12 11 11 10 9 8 9 9 8 8 8 7 7 7 6 6 5 5 5 4 3 2 2 2 2 2 1 1 1 1 2 2 3 3 3 3 3 3 3 3 3 2 2 3
14 14 13 12 11 12 13 13 11 11 10 8 7 9 9 8 5 5 4 2 2 2 3 5 4 5 6 6 6 7 8 8 10 11 12 11 11 12 11 11 12 12 12 11 12 11 11 9 8 8 9 8 8 7 7 6 6 5 5 4 4 4 4 4 3 2 2 3 2 2 2 2 3 3 4 4 3 3 3 3 3 3 4 3 3 2 2
14 14 15 15 14 13 14 16 15 13 10 9 10 12 12 9 6 6 5 3 5 6 3 3 4 3 4 5 5 6 7 8 9 10 10 10 11 11 10 10 11 12 12 12 12 12 12 11 10 10 10 9 9 9 8 7 6 5 5 5 4 4 4 4 3 3 3 3 2 2 3 4 4 4 4 4 3 2 2 3 4 5 5 5 4 4 3
15 15 16 18 17 14 13 15 17 16 12 10 11 14 14 10 7 8 8 8 8 9 8 5 4 4 3 3 4 5 6 7 8 8 9 9 9 9 10 10 11 11 12 12 12 12 11 11 11 11 11 10 10 10 9 9 8 7 6 6 5 5 5 5 4 4 4 4 3 3 3 5 5 4 3 2 2 2 3 4 4 5 5 4 4 4 3
16 16 16 17 17 15 12 12 15 17 15 12 13 16 16 11 8 10 12 11 10 11 11 9 7 6 4 1 2 3 4 6 6 7 7 8 8 9 9 9 9 9 10 11 12 11 11 11 11 11 11 10 10 10 10 10 9 8 8 7 7 6 6 6 6 5 5 4 4 3 3 4 3 2 1 1 2 3 4 4 4 4 4 5 5 5 4
Wind_Direction
291 298 305 308 304 297 300 300 306 322 334 344 339 276 248 172 167 238 209 97 20 245 176 116 127 113 66 71 140 156 148 152 170 169 165 168 167 166 165 160 158 151 138 130 126 130 135 134 132 130 131 149 159 155 162 174 180 186 189 191 195 195 194 195 195 196 197 200 207 212 220 231 234 234 238 238 239 245 249 254 258 258 259 258 250 243 244
323 336 330 319 315 308 306 310 314 321 328 342 344 309 311 18 210 219 170 92 39 360 20 40 66 72 64 59 71 106 127 164 185 184 174 170 172 173 172 175 175 169 161 150 130 121 126 131 140 146 146 156 160 147 145 150 156 161 161 159 161 165 169 172 172 171 174 180 188 198 212 242 260 250 246 239 235 238 243 248 252 253 255 257 256 255 255
346 333 316 310 317 321 318 319 328 347 359 1 10 11 10 22 340 338 58 67 39 341 345 37 55 58 61 58 53 44 25 15 41 177 196 201 203 196 179 174 173 172 170 166 156 143 140 142 145 146 156 169 168 145 131 135 144 155 160 159 156 164 174 175 169 164 162 161 160 158 149 121 105 132 188 226 234 233 233 243 253 259 266 271 273 273 268
309 291 308 321 343 359 349 337 349 18 29 25 35 40 42 71 52 27 41 51 5 321 341 29 51 57 63 60 48 38 27 25 34 39 32 238 224 217 205 182 172 175 172 166 165 164 159 154 149 146 149 165 171 159 139 150 168 177 184 171 166 176 184 177 169 169 171 176 169 152 146 148 167 195 205 222 257 265 263 268 274 273 274 279 283 283 278
254 269 355 0 13 14 342 327 1 359 355 66 67 32 29 64 73 59 67 66 332 339 7 24 40 54 63 59 46 41 43 44 43 41 36 27 13 248 211 186 170 169 165 161 164 169 168 159 161 171 165 150 164 171 166 169 183 202 217 167 169 186 181 164 161 167 172 178 175 170 189 209 215 217 219 222 228 242 259 269 273 273 273 274 280 284 282
250 310 37 24 12 334 268 318 15 359 359 88 94 64 37 46 58 76 98 68 13 18 26 27 32 47 59 58 53 53 53 48 40 38 37 33 33 38 151 174 165 157 153 155 160 165 169 163 162 171 154 122 166 185 192 204 211 206 195 188 202 211 191 175 182 195 193 182 180 193 209 219 224 228 232 232 229 229 236 242 251 261 267 270 274 278 279
193 37 50 33 286 235 191 41 22 7 22 71 97 83 50 42 48 55 54 44 32 37 38 29 26 35 55 58 52 48 46 41 36 37 33 29 37 53 78 122 143 149 152 157 161 165 174 178 175 177 163 341 260 237 226 241 238 222 213 211 215 227 227 216 211 215 215 204 201 212 221 227 234 238 238 236 234 234 236 240 245 251 258 263 266 270 274
144 85 95 158 241 279 39 41 21 12 21 28 50 60 38 27 39 59 59 49 42 42 38 28 22 28 52 57 48 40 37 38 40 43 36 29 35 47 69 88 99 118 133 143 153 163 181 195 198 200 176 112 221 223 219 228 230 240 249 232 215 230 244 242 238 235 230 226 230 240 247 252 258 257 250 251 255 257 257 252 249 251 256 260 261 263 270
136 139 178 205 310 339 5 23 8 13 24 10 37 82 44 14 14 25 43 49 40 37 30 21 16 25 47 50 35 26 27 31 35 36 30 25 29 34 41 56 66 85 117 134 143 124 73 69 191 215 218 206 209 229 233 231 229 251 269 251 230 240 249 247 249 242 223 227 242 257 268 274 277 274 275 282 283 283 285 273 255 251 255 262 263 262 266
132 126 158 301 346 301 289 339 3 9 8 356 360 86 66 1 359 10 26 40 34 33 26 14 10 23 47 47 12 12 15 15 15 16 13 9 10 14 17 21 22 16 9 321 241 199 173 122 157 236 250 258 279 282 263 252 249 252 254 247 247 256 251 240 236 231 229 238 247 255 264 271 274 278 281 283 285 290 295 290 273 258 255 261 265 262 260
116 115 130 203 198 217 290 334 355 353 349 348 358 63 55 334 343 6 22 25 26 29 21 11 12 29 50 4 346 357 359 359 2 1 360 358 350 346 354 1 358 355 358 349 305 256 245 249 251 266 285 286 280 275 266 260 261 259 255 251 255 259 249 233 229 233 236 237 237 242 254 263 272 278 280 281 284 290 296 296 284 263 253 256 261 261 260
118 149 159 185 160 88 352 333 343 343 342 356 34 94 10 319 328 358 14 8 14 23 16 10 18 55 63 329 338 347 342 339 345 345 346 348 342 334 334 333 330 328 326 326 320 308 300 287 267 270 290 292 280 273 269 267 267 266 261 256 254 254 250 247 247 245 241 241 244 250 259 266 273 278 280 282 284 287 292 295 284 262 252 253 258 260 260
54 154 141 101 109 41 331 322 338 343 341 10 67 166 275 309 323 355 8 355 351 360 2 5 11 9 359 349 344 345 337 328 329 331 333 334 329 324 320 317 317 316 311 309 308 304 304 300 281 273 282 281 277 274 271 268 268 268 266 264 261 259 257 255 254 252 249 251 256 258 260 265 269 271 274 277 279 283 289 292 280 261 254 256 259 260 259
43 67 102 70 33 285 295 314 346 3 2 34 119 268 287 304 324 347 348 335 342 355 2 11 9 356 349 346 343 341 337 331 327 323 321 322 319 315 311 308 309 312 311 307 300 295 298 293 281 279 279 275 277 279 273 266 265 267 269 268 265 262 260 257 255 255 256 257 256 255 255 257 258 259 263 269 274 278 284 285 271 259 259 262 262 260 259
48 58 72 57 2 274 278 314 355 23 44 218 276 304 316 342 2 3 353 348 2 11 10 7 1 350 342 339 336 333 330 328 325 320 317 315 311 308 308 305 302 303 305 305 301 296 295 289 283 284 284 282 283 283 278 272 270 270 268 266 264 262 260 258 258 259 260 259 257 256 254 254 258 260 262 265 269 274 279 274 259 255 261 265 265 262 258
44 44 48 110 221 245 7 42 8 353 20 27 26 17 12 19 18 11 4 2 2 2 359 353 347 342 337 332 327 323 319 316 314 314 316 314 308 303 304 304 303 302 301 299 297 294 291 287 284 284 286 287 286 280 275 277 278 274 268 262 261 260 260 260 261 262 261 261 261 260 260 260 261 262 262 264 266 269 270 262 252 254 261 265 265 262 257
89 143 183 167 210 328 30 46 50 36 34 33 31 27 23 17 8 360 356 352 347 346 347 344 339 335 330 322 315 312 308 306 305 303 305 310 309 304 299 296 298 303 305 303 299 294 291 286 283 282 282 283 283 279 274 273 276 276 272 267 263 262 262 265 266 265 267 268 267 266 266 264 262 260 259 261 262 258 255 255 255 256 261 267 267 263 258
50 87 48 35 23 17 28 37 38 36 32 24 17 14 10 4 356 350 347 340 335 335 334 331 329 326 320 313 308 304 301 301 301 299 297 299 302 301 297 293 292 294 299 303 303 302 299 291 282 277 273 272 274 275 271 267 266 268 272 274 272 267 265 267 269 269 270 270 267 265 265 265 265 262 257 256 256 250 245 247 253 257 263 268 265 260 255
34 39 39 29 14 14 27 29 23 18 14 10 6 2 356 350 343 339 338 333 329 327 324 324 321 316 312 309 305 302 301 299 298 298 297 298 299 297 295 294 293 292 293 297 302 302 298 292 285 275 267 265 267 269 268 267 266 266 268 271 273 272 271 270 270 268 266 264 264 266 267 266 265 260 251 245 243 238 234 239 250 259 265 264 259 256 255
86 83 31 19 9 12 18 14 8 2 357 354 352 346 344 345 341 338 336 331 328 326 322 320 317 312 311 311 306 302 300 298 296 297 298 298 298 297 293 291 292 294 294 295 299 298 292 289 288 283 277 273 271 268 266 265 266 266 268 267 267 270 274 274 270 266 263 262 263 266 267 263 254 246 239 236 235 239 248 259 264 265 264 261 259 260 259
11 26 21 14 9 6 360 354 352 351 346 343 343 342 342 343 342 340 335 330 328 326 322 320 318 313 310 310 307 303 300 298 297 298 296 295 295 294 293 292 291 292 292 290 291 291 287 283 283 281 278 275 273 270 268 266 265 267 268 268 266 267 270 272 269 266 264 265 264 264 262 255 245 240 243 248 254 264 272 273 269 264 262 261 260 257 253
360 356 15 17 14 339 336 340 342 342 341 340 343 344 343 341 339 336 332 326 321 316 315 316 316 313 310 307 303 301 299 297 297 297 296 296 294 292 292 290 286 286 287 288 290 289 286 281 279 278 276 273 272 271 270 268 268 268 268 268 267 266 266 267 267 264 261 261 262 260 255 246 241 245 252 257 264 269 269 263 257 255 257 259 257 253 246
241 329 356 6 4 314 320 332 335 338 341 342 343 343 341 339 338 332 327 324 319 313 311 311 311 310 309 305 300 298 297 296 296 295 293 292 290 289 288 288 288 288 289 289 290 287 284 281 277 273 270 267 266 267 267 266 266 266 265 264 264 264 264 264 263 260 255 255 258 256 250 245 247 252 257 260 262 260 254 251 251 253 257 254 246 241 238
280 347 350 353 348 331 327 331 334 341 348 347 343 342 340 337 331 323 320 323 323 320 319 319 319 316 311 305 302 301 298 294 292 290 286 284 284 285 285 287 290 292 289 287 285 283 280 278 274 270 267 263 261 260 261 260 259 257 256 258 258 259 259 260 260 259 256 256 258 257 254 253 253 255 259 260 254 245 243 249 253 250 244 232 218 211 214
10 360 350 348 341 334 334 336 337 340 344 344 343 343 340 333 325 322 326 331 331 330 331 331 327 321 314 309 305 301 296 291 286 282 280 280 280 280 280 280 281 280 277 275 273 273 274 275 273 272 269 264 260 257 254 252 250 248 247 249 253 255 255 255 256 256 253 254 256 256 257 257 255 255 256 253 244 237 235 233 227 214 201 195 189 184 184
22 3 352 347 340 338 340 341 341 343 344 344 343 341 336 332 332 337 344 342 337 336 335 331 327 323 322 319 312 305 299 294 290 288 287 286 284 280 277 274 270 267 266 266 266 267 270 271 272 272 271 268 264 260 256 253 251 248 244 241 241 244 247 248 249 250 249 249 250 252 253 252 250 248 246 241 238 237 228 204 182 171 165 162 165 168 168
27 6 357 354 352 353 350 344 345 349 347 345 346 346 345 347 351 356 355 350 348 348 345 341 338 334 329 326 322 316 311 306 304 303 300 296 293 289 284 277 271 267 266 266 266 265 265 267 268 270 271 271 270 267 263 259 256 252 247 243 240 239 239 238 239 244 246 245 245 248 249 247 242 237 233 228 224 222 213 194 177 167 159 154 155 161 165
21 7 3 6 5 358 353 348 345 343 344 351 360 2 3 7 9 9 8 7 6 4 358 352 347 339 334 331 328 324 319 315 314 315 314 313 312 309 301 291 283 277 273 271 270 269 269 271 273 275 277 278 276 272 267 262 257 251 246 241 238 237 236 234 232 235 238 239 241 244 243 237 228 220 215 210 204 197 191 182 173 166 160 154 152 156 159
13 4 359 5 7 358 353 354 355 355 1 11 17 16 15 18 21 21 20 17 13 9 5 358 350 344 340 337 332 328 324 322 322 324 328 331 331 325 316 305 295 289 285 283 282 283 284 286 289 290 290 287 279 271 265 260 255 251 246 240 236 233 232 231 233 235 232 230 234 237 232 223 216 208 200 194 188 182 176 172 169 165 160 156 154 152 150
7 6 1 7 13 9 10 16 16 14 15 19 22 21 19 23 26 22 17 14 10 8 5 2 358 355 353 350 346 339 329 325 328 332 335 341 348 352 353 359 18 38 47 56 55 39 12 339 323 316 311 304 294 282 272 261 253 249 245 239 235 231 227 226 230 232 227 223 225 225 220 212 207 202 191 181 174 170 166 163 162 159 155 153 153 152 151
359 360 3 18 24 23 28 29 21 17 19 23 26 22 16 17 20 17 12 9 7 5 6 8 8 7 7 8 7 1 348 343 352 359 3 15 44 70 79 84 86 84 82 79 74 64 52 33 10 355 344 332 317 303 292 278 258 245 236 229 226 224 219 218 221 225 224 222 218 211 206 201 194 186 175 166 161 159 157 154 153 153 152 151 150 149 150
354 348 1 23 29 33 38 32 21 23 30 29 26 21 17 17 18 15 10 8 6 6 9 14 17 15 15 19 22 23 24 29 38 54 73 83 86 87 85 83 83 82 81 78 73 67 59 48 36 25 13 360 340 316 307 302 259 209 203 203 205 207 205 204 209 215 219 217 207 197 191 186 175 164 157 153 152 153 153 152 152 154 155 155 152 143 138
347 5 34 43 38 40 46 45 25 13 15 20 22 23 24 25 22 17 12 8 5 6 12 18 21 20 21 25 33 38 44 54 63 73 84 88 87 85 83 83 83 82 82 82 80 74 66 56 50 44 36 31 28 9 337 343 134 156 171 183 190 196 198 199 202 204 200 193 185 175 168 163 157 152 150 151 152 152 151 150 150 152 154 157 158 150 138
301 59 55 52 61 73 72 65 30 353 352 4 19 26 29 28 24 21 15 8 5 7 12 16 19 22 26 30 37 44 51 58 60 62 70 77 79 80 82 85 89 91 91 91 85 75 65 58 54 53 50 48 50 59 72 97 122 139 154 165 171 174 175 175 175 173 167 162 158 154 151 150 149 149 150 150 149 148 147 147 149 152 156 159 163 164 157
204 176 115 81 98 119 103 45 355 340 346 1 18 26 27 23 22 22 16 7 5 7 11 14 17 22 28 34 39 46 51 53 54 57 65 73 76 80 85 92 98 100 98 94 84 71 63 60 59 59 60 59 60 66 75 87 100 112 121 130 136 140 141 142 144 144 142 140 137 137 138 139 141 143 145 145 145 146 150 152 153 153 155 155 158 165 174
195 174 143 130 140 164 317 322 318 334 354 356 2 13 15 14 17 21 9 2 3 6 11 17 20 22 25 30 35 40 47 51 52 56 65 71 72 76 83 91 96 100 99 93 83 71 66 65 65 67 68 67 66 70 76 82 87 91 96 101 107 112 116 119 122 124 125 126 127 129 131 134 137 140 143 145 147 151 157 158 152 147 148 149 147 152 163
198 168 152 154 172 242 315 322 331 7 4 353 353 5 9 8 12 14 359 358 4 6 8 15 22 21 21 25 27 30 41 51 53 55 62 68 70 74 77 79 84 91 93 87 78 72 70 70 72 75 77 76 73 74 79 85 88 91 93 97 101 105 110 113 115 119 124 128 131 134 137 140 141 143 145 146 146 149 155 157 152 147 146 146 141 142 154
174 171 173 177 185 218 296 319 336 360 3 1 4 9 6 5 12 13 2 359 4 7 9 18 26 23 20 21 20 21 30 45 54 58 62 65 68 71 70 66 66 70 74 77 78 79 78 76 76 79 83 85 86 88 90 92 95 96 98 100 102 105 110 116 120 124 130 135 139 142 145 146 146 145 143 139 136 138 145 151 152 152 153 155 156 159 167
186 195 199 199 197 199 258 351 1 350 349 358 4 2 359 5 15 18 12 6 2 3 8 19 29 29 28 30 26 19 21 32 48 60 65 66 67 69 69 66 63 61 64 74 85 87 84 81 80 82 84 87 91 95 99 101 102 103 105 107 107 107 111 116 119 121 125 131 137 140 142 144 145 144 142 139 137 138 143 149 156 163 166 168 174 184 188
200 207 211 209 196 186 199 312 26 12 336 338 349 354 359 7 9 7 14 17 7 359 3 16 29 32 33 35 33 25 21 27 39 53 62 68 71 71 71 69 67 64 65 72 82 88 89 87 84 84 86 89 92 96 101 106 108 107 108 109 110 110 112 116 117 117 118 123 131 136 140 144 148 150 153 155 157 158 161 168 179 189 192 187 180 185 195
206 210 218 221 198 166 204 248 265 39 334 330 346 351 350 360 4 357 3 22 21 3 4 20 35 38 34 33 36 35 31 33 40 49 57 62 66 69 69 68 67 67 67 69 74 80 85 86 84 83 86 90 94 99 105 110 112 112 112 112 111 112 113 115 119 121 123 126 134 143 152 160 165 169 172 174 173 174 180 188 196 203 207 205 191 184 194
212 221 224 222 221 233 251 242 232 229 278 312 336 340 339 351 4 356 353 10 34 23 12 22 37 40 37 35 37 39 37 36 40 49 55 57 59 64 68 69 70 70 69 68 69 72 75 78 79 80 83 88 96 104 111 114 116 117 117 117 116 115 116 121 127 133 137 139 142 147 155 165 170 173 175 176 178 181 188 195 199 203 209 217 218 202 194
214 225 226 217 223 239 245 239 235 232 229 253 289 322 339 350 359 355 351 359 20 34 25 26 34 35 32 32 37 42 44 43 41 45 52 57 60 63 66 70 72 72 72 71 71 70 70 71 72 73 76 82 90 98 105 111 114 118 122 125 125 126 128 132 137 141 145 149 151 153 160 166 171 175 180 186 190 194 198 201 203 205 210 222 237 241 225
217 221 222 219 227 237 242 247 245 219 207 236 291 314 329 335 342 351 353 357 9 20 22 30 42 35 24 25 33 40 44 48 50 49 52 59 64 65 67 69 71 71 71 72 73 72 72 71 71 72 73 76 81 86 91 94 98 107 116 123 129 134 137 139 141 145 148 152 156 160 165 171 177 185 195 202 205 207 209 212 216 219 222 229 239 244 240
228 221 217 219 228 232 230 232 238 228 224 247 308 344 193 271 327 342 346 356 13 22 22 32 58 56 34 25 30 37 43 50 55 55 56 59 63 64 65 66 67 68 68 68 69 71 71 70 70 72 72 72 73 77 82 85 88 96 104 109 113 121 128 133 139 146 151 158 164 171 179 189 197 205 210 213 216 220 225 228 228 223 217 216 217 218 209
238 231 221 219 226 229 224 225 241 244 235 238 290 298 255 225 271 314 334 10 37 40 37 41 61 75 61 34 26 32 43 53 57 56 55 56 60 64 66 65 65 67 66 64 63 64 64 63 64 67 70 71 71 71 73 76 78 83 91 101 111 117 121 126 135 144 153 164 174 181 189 198 205 210 218 225 229 233 237 224 194 178 171 171 175 179 180
241 241 232 224 225 228 228 230 240 241 228 212 233 249 246 232 232 254 282 47 52 46 47 55 68 76 81 74 29 25 35 47 55 57 56 54 56 64 71 72 69 66 62 58 56 56 55 53 53 54 57 62 67 69 71 74 74 72 74 82 95 108 119 131 145 160 169 167 159 160 176 206 216 205 204 199 185 173 158 145 144 141 136 137 147 156 164
239 242 243 239 232 229 231 233 234 233 231 225 221 230 240 248 239 224 210 112 36 21 28 43 61 69 73 80 74 49 41 44 52 59 61 59 57 60 67 71 70 67 63 58 55 53 50 50 51 50 47 48 52 56 61 65 67 69 71 69 62 61 68 83 113 151 168 158 121 96 66 49 63 95 109 111 112 110 108 112 119 120 118 117 122 131 141
238 241 244 245 239 232 231 231 230 229 233 233 222 225 242 255 234 192 174 184 231 265 342 3 19 45 59 69 77 71 62 55 54 56 59 58 55 55 59 65 68 69 66 63 61 58 53 50 51 51 49 47 47 50 53 54 55 57 62 63 56 45 33 25 32 62 91 103 105 91 72 67 72 80 88 98 105 102 98 97 93 85 81 81 83 95 119
239 237 237 238 240 238 233 230 228 225 227 231 228 229 240 249 229 189 175 190 207 212 237 305 321 344 26 54 75 80 75 69 62 57 55 53 50 48 50 54 60 66 71 70 66 62 58 56 55 55 53 51 50 52 52 51 49 45 39 39 42 40 30 23 24 32 42 55 76 76 64 62 67 76 90 107 119 111 95 95 90 83 75 70 68 70 77
241 238 237 239 244 248 244 236 229 221 218 225 230 230 236 243 231 204 197 195 194 198 209 230 254 274 315 20 62 76 78 79 77 71 66 62 56 51 48 46 46 53 61 66 66 65 63 60 58 57 55 53 53 54 53 52 52 51 45 40 37 31 23 23 25 25 30 41 57 72 80 83 83 83 91 114 119 97 88 88 85 77 65 52 48 50 49
244 242 242 245 248 253 253 242 226 217 218 229 236 232 231 232 224 213 213 210 202 204 217 230 239 248 262 304 64 80 82 84 82 75 69 66 61 54 51 48 44 44 50 55 57 59 63 65 62 59 57 55 54 55 52 48 47 48 49 49 48 42 34 33 38 47 58 66 67 69 84 100 105 101 81 68 80 86 86 81 72 63 49 34 30 28 19